Change the Weather History Date:

Tuesday, October 2, 2012

  Actual Average Record
Temperature  
Mean Temperature 58 °F -  
Max Temperature 75 °F 72 °F 95 °F (1997)
Min Temperature 43 °F 46 °F 30 °F (2004)
Degree Days  
Heating Degree Days 7    
Growing Degree Days 8 (Base 50)    
Moisture  
Dew Point 38 °F    
Average Humidity 52    
Maximum Humidity 82    
Minimum Humidity 21    
Precipitation  
Precipitation 0.00 in - - ()
Sea Level Pressure  
Sea Level Pressure 29.96 in    
Wind  
Wind Speed 7 mph (NW)    
Max Wind Speed 13 mph    
Max Gust Speed -    
Visibility 10 miles    
Events      
Averages and records for this station are not official NWS values.
T = Trace of Precipitation, MM = Missing Value Source: NWS Daily Summary

Daily Weather History Graph

Daily Weather History Graph

Search for Another Location

Airport or City:

Trip Planner

Search our weather history database for the weather conditions in past years. The results will help you decide how hot, cold, wet, or windy it might be!

Date:

Astronomy

Oct. 02, 2012 Rise Set
Actual Time 7:28 AM CDT 7:12 PM CDT
Civil Twilight 7:02 AM CDT 7:38 PM CDT
Nautical Twilight 6:31 AM CDT 8:08 PM CDT
Astronomical Twilight 6:00 AM CDT 8:39 PM CDT
Moon 8:29 PM CDT (10/2) 9:53 AM CDT (10/2)
Length of Visible Light 12h 36m
Length of Day
11h 43m
Waning Gibbous, 94% of the Moon is Illuminated
Oct 2
Waning Gibbous
Oct 8
Last Quarter
Oct 15
New
Oct 21
First Quarter
Oct 29
Full

Hourly Weather History & Observations

Time (CDT) Temp. Windchill Dew Point Humidity Pressure Visibility Wind Dir Wind Speed Gust Speed Precip Events Conditions
12:52 AM 57.9 °F - 46.0 °F 65% 29.99 in 10.0 mi North 12.7 mph - N/A   Clear
1:52 AM 55.9 °F - 44.1 °F 64% 30.00 in 10.0 mi North 9.2 mph - N/A   Clear
2:52 AM 54.0 °F - 43.0 °F 66% 29.99 in 10.0 mi North 9.2 mph - N/A   Clear
3:52 AM 53.1 °F - 41.0 °F 64% 29.99 in 10.0 mi North 8.1 mph - N/A   Clear
4:52 AM 53.1 °F - 39.9 °F 61% 29.99 in 10.0 mi North 8.1 mph - N/A   Clear
5:52 AM 45.0 °F 41.8 °F 39.0 °F 80% 30.01 in 10.0 mi NW 5.8 mph - N/A   Clear
6:52 AM 43.0 °F 40.3 °F 37.0 °F 80% 30.01 in 10.0 mi WNW 4.6 mph - N/A   Clear
7:52 AM 43.0 °F 38.2 °F 37.9 °F 82% 30.03 in 10.0 mi NW 8.1 mph - N/A   Clear
8:52 AM 48.9 °F - 39.0 °F 69% 30.03 in 10.0 mi NW 8.1 mph - N/A   Clear
9:52 AM 57.0 °F - 41.0 °F 55% 30.03 in 10.0 mi WNW 5.8 mph - N/A   Clear
10:52 AM 63.0 °F - 41.0 °F 45% 30.02 in 10.0 mi West 4.6 mph - N/A   Clear
11:52 AM 68.0 °F - 36.0 °F 31% 30.00 in 10.0 mi WNW 5.8 mph - N/A   Clear
12:52 PM 71.1 °F - 35.1 °F 27% 29.97 in 10.0 mi WSW 5.8 mph - N/A   Clear
2:52 PM 73.0 °F - 33.1 °F 23% 29.91 in 10.0 mi Variable 3.5 mph - N/A   Clear
3:52 PM 73.9 °F - 32.0 °F 21% 29.89 in 10.0 mi WNW 6.9 mph - N/A   Clear
4:52 PM 73.9 °F - 32.0 °F 21% 29.88 in 10.0 mi Calm Calm - N/A   Clear
5:52 PM 73.0 °F - 32.0 °F 22% 29.87 in 10.0 mi Calm Calm - N/A   Clear
6:52 PM 69.1 °F - 37.0 °F 31% 29.88 in 10.0 mi South 3.5 mph - N/A   Clear
7:52 PM 53.1 °F - 39.9 °F 61% 29.89 in 10.0 mi East 3.5 mph - N/A   Clear
9:52 PM 55.0 °F - 36.0 °F 49% 29.90 in 10.0 mi Calm Calm - N/A   Clear
10:52 PM 54.0 °F - 37.0 °F 53% 29.90 in 10.0 mi Calm Calm - N/A   Clear
11:52 PM 46.9 °F - 37.9 °F 71% 29.91 in 10.0 mi Calm Calm - N/A   Clear